Location: Владивосток
(43.1151°N, 131.8856°E)
Time: 18:00:59
(UTC+10:00)

SPROUT - Pass Details

Date: 05 July 2022
Orbit: 588 x 598 km, 97.9° (Epoch: 17 August)

Event Time Altitude Azimuth Distance (km) Brightness Sun altitude
Exits shadow 01:17:06 27° 88° (E) 1,146 ? -24.0°
Maximum altitude 01:17:50 29° 69° (ENE) 1,099 ? -24.0°
Drops below altitude 10° 01:21:26 10° 9° (N) 1,926 ? -24.0°
Sets 01:23:49 0° 358° (N) 2,834 ? -24.0°
